Location: ??????????
(54.8537°N, 38.8755°E)
Time: 02:59:23
(UTC+00:00)

Vanguard 2 Rocket - Pass Details

Date: 19 September 2024
Orbit: 553 x 3298 km, 32.9° (Epoch: 14 October)

Event Time Altitude Azimuth Distance (km) Brightness Sun altitude
Exits shadow 21:50:30 14° 125° (SE) 4,342 10.1 -33.7°
Drops below altitude 10° 21:52:59 10° 117° (ESE) 4,875 10.4 -33.7°
Sets 21:59:36 0° 102° (ESE) 6,439 11.3 -33.5°
